• Processing (Info)

  • MPEC 2019-G25 : 2019 FZ2

    The following Minor Planet Electronic Circular may be linked-to from your own Web pages, but must not otherwise be redistributed electronically.

    A form allowing access to any MPEC is at the bottom of this page.


    Read MPEC 2019-G24 Read MPEC 2019-G26


    M.P.E.C. 2019-G25                                Issued 2019 Apr. 4, 02:56 UT
    
         The Minor Planet Electronic Circulars contain information on unusual
             minor planets and routine data on comets.  They are published
        on behalf of Division F of the International Astronomical Union by the
              Minor Planet Center, Smithsonian Astrophysical Observatory,
                              Cambridge, MA 02138, U.S.A.
    
                 Prepared using the Tamkin Foundation Computer Network
    
                                  MPC@CFA.HARVARD.EDU
                URL https://www.minorplanetcenter.net/    ISSN 1523-6714
    
                                       2019 FZ2
    
    Observations:
         K19F02Z* C2019 03 31.35780 13 01 30.98 -14 09 29.9          20.8 GVEG025G96
         K19F02Z  C2019 03 31.36297 13 01 29.21 -14 10 19.7          20.8 GVEG025G96
         K19F02Z  C2019 03 31.36813 13 01 27.35 -14 11 10.2          20.3 GVEG025G96
         K19F02Z  C2019 03 31.37330 13 01 25.70 -14 12 00.4          21.7 GVEG025G96
         K19F02Z  C2019 03 31.44998 13 00 59.45 -14 24 25.5          20.9 GVEG025I52
         K19F02Z  C2019 03 31.45332 13 00 58.27 -14 24 57.7                VEG025I52
         K19F02Z  C2019 03 31.45499 13 00 57.66 -14 25 13.3                VEG025I52
         K19F02Z KC2019 03 31.90643812 58 35.69 -15 39 25.3          20.9 GVEG025L01
         K19F02Z KC2019 03 31.90928112 58 34.68 -15 39 53.2          20.9 GVEG025L01
         K19F02Z KC2019 03 31.91263412 58 33.52 -15 40 26.6          20.8 GVEG025L01
         K19F02Z KC2019 03 31.91469612 58 32.82 -15 40 46.9          21.0 GVEG025L01
         K19F02Z  C2019 04 01.24226 12 56 44.64 -16 34 48.9          21.0 GVEG025I52
         K19F02Z  C2019 04 01.24393 12 56 44.22 -16 35 00.5          20.9 GVEG025I52
         K19F02Z  C2019 04 01.24559 12 56 43.39 -16 35 21.8          21.7 GVEG025I52
         K19F02Z  C2019 04 01.24726 12 56 42.81 -16 35 38.7          21.1 GVEG025I52
         K19F02Z  C2019 04 02.21102 12 51 10.89 -19 17 00.1          20.9 GVEG025I52
         K19F02Z  C2019 04 02.21351 12 51 09.90 -19 17 25.5          20.5 GVEG025I52
         K19F02Z  C2019 04 02.21601 12 51 09.00 -19 17 51.2          20.1 GVEG025I52
         K19F02Z  C2019 04 02.21851 12 51 08.06 -19 18 16.6          20.8 GVEG025I52
         K19F02Z KC2019 04 02.48591812 49 31.06 -20 02 04.8          20.8 GVEG025474
         K19F02Z KC2019 04 02.48831712 49 30.11 -20 02 28.4          20.8 GVEG025474
         K19F02Z KC2019 04 02.49071712 49 29.21 -20 02 52.9          20.8 GVEG025474
         K19F02Z  C2019 04 03.33295 12 44 16.81 -22 27 24.9          21.0 GVEG025I52
         K19F02Z  C2019 04 03.35005 12 44 09.94 -22 30 19.1          21.4 GVEG025I52
         K19F02Z  C2019 04 03.35323 12 44 08.58 -22 30 52.2                VEG025I52
         K19F02Z  C2019 04 03.35573 12 44 07.58 -22 31 16.9          21.5 GVEG025I52
    
    Observer details:
    474 Mount John Observatory, Lake Tekapo.  Observers A. C. Gilmore,
        P. M. Kilmartin.  Measurer P. M. Kilmartin.  1.0-m f/7.7 reflector + CCD.
    G96 Mt. Lemmon Survey.  Observer D. C. Fuls.  Measurers B. M. Africano,
        E. J. Christensen, G. A. Farneth, D. C. Fuls, A. R. Gibbs, A. D. Grauer,
        H. Groeller, R. A. Kowalski, S. M. Larson, G. J. Leonard, T. A. Pruyne,
        R. L. Seaman, F. C. Shelly.  1.5-m reflector + 10K CCD.
    I52 Steward Observatory, Mt. Lemmon Station.  Observers H. Groeller,
        R. A. Kowalski, G. J. Leonard.  Measurers B. M. Africano,
        E. J. Christensen, G. A. Farneth, D. C. Fuls, A. R. Gibbs, A. D. Grauer,
        H. Groeller, R. A. Kowalski, S. M. Larson, G. J. Leonard, T. A. Pruyne,
        R. L. Seaman, F. C. Shelly.  1.0-m reflector + CCD.
    L01 Visnjan Observatory, Tican.  Observer K. Korlevic.  1.0-m f/2.9 reflector
        + CCD.
    
    Orbital elements:
    2019 FZ2                                                 Earth MOID = 0.1184 AU
    Epoch 2019 Apr. 27.0 TT = JDT 2458600.5                 MPC
    M 352.19381              (2000.0)            P               Q
    n   0.60433836     Peri.  219.71078     -0.66535833     +0.74446629
    a   1.3855300      Node     9.07043     -0.56392402     -0.45260571
    e   0.2219268      Incl.   20.57061     -0.48917072     -0.49083399
    P   1.63           H   24.8           G   0.15           U   7
    Residuals in seconds of arc
    190331 G96  0.1+  0.5-    190331 L01  0.0   0.4+    190402 I52  0.1+  0.0
    190331 G96  0.2+  0.0     190331 L01  0.3+  0.6+    190402 474  0.6+  0.7-
    190331 G96  1.0-  0.3-    190401 I52  0.5+  0.7-    190402 474  0.1+  0.1+
    190331 G96  0.9+  0.2-    190401 I52 (3.1+  4.5+)   190402 474  0.4+  0.0
    190331 I52  0.4+  0.2-    190401 I52  0.3-  0.2-    190403 I52  0.4-  0.3+
    190331 I52  0.3-  0.1+    190401 I52  0.0   0.4-    190403 I52  0.5+  0.3+
    190331 I52  1.0-  0.7+    190402 I52  0.2+  0.1+    190403 I52  0.5-  0.4-
    190331 L01  0.1+  0.2+    190402 I52  0.6-  0.1+    190403 I52  0.3-  0.3+
    190331 L01  0.2-  0.5+    190402 I52  0.0   0.1-
    
    Ephemeris:
    2019 FZ2                 a,e,i = 1.39, 0.22, 21                  q = 1.0780
    Date    TT    R. A. (2000) Decl.     Delta      r     Elong.  Phase     V
    2019 03 05    14 02 20.8 +23 39 16   0.2616  1.1858   133.1    37.7    23.8
    ...
    2019 03 20    13 43 51.5 +09 46 50   0.1675  1.1456   151.5    24.5    22.4
    ...
    2019 03 28    13 17 36.8 -05 33 27   0.1325  1.1271   166.5    11.9    21.4
    ...
    2019 04 03    12 46 22.4 -21 29 38   0.1196  1.1149   163.5    14.7    21.3
    2019 04 04    12 40 01.6 -24 19 55   0.1189  1.1130   160.9    17.1    21.3
    2019 04 05    12 33 20.4 -27 09 48   0.1186  1.1112   158.1    19.7    21.4
    ...
    2019 04 11    11 46 21.6 -42 43 19   0.1253  1.1010   140.1    35.7    22.0
    ...
    2019 04 19    10 31 22.1 -56 14 13   0.1512  1.0902   121.2    52.0    22.8
    ...
    2019 05 04    08 30 53.8 -64 38 44   0.2197  1.0790   103.0    65.6    24.0
    
    A. U. Tomatic                (C) Copyright 2019 MPC           M.P.E.C. 2019-G25
    

    Read MPEC 2019-G24 Read MPEC 2019-G26


    MPEC number:

    Enter an MPEC number in one of the following forms:

    • 1997-B01 (the full form)
    • J97B01 (the packed version of the full form)
    • B01 (the abbreviated form)